Orbital Elements at Epoch 2459000.5 (2020-May-31.0) TDB
Reference: JPL 17 (heliocentric ecliptic J2000)
Element | Value | Uncertainty (1-sigma) | Units |
e | .2592437814001215 | 5.8372e-08 | |
a | 2.608091289008087 | 2.0549e-08 | au |
q | 1.931959841008913 | 1.6025e-07 | au |
i | 12.27692560950459 | 6.431e-06 | deg |
node | 194.1676897006597 | 2.181e-05 | deg |
peri | 93.97831384672841 | 2.5278e-05 | deg |
M | 315.7965026500768 | 1.3636e-05 | deg |
tp | 2459189.402080359411 (2020-Dec-05.90208036) | 5.9433e-05 | TDB |
period | 1538.447249796765 4.21 | 1.8182e-05 4.978e-08 | d yr |
n | .2340021733260971 | 2.7656e-09 | deg/d |
Q | 3.284222737007261 | 2.5876e-08 | au |
|
| | Orbit Determination Parameters
Additional Information
|